GW4157 Weather Reports


Display with metric or nautical units.
time (UTC)temp
F
wind
direction
speed
MPH
gust
MPH
rain 1hr
in
rain 24hr
in
rain mn
in
humidity
%
barometer
mb
20260503203038 54 216 3.0 17.0 0.00 0.00 0.00 42 1011.3
20260503201537 54 167 4.0 18.0 0.00 0.00 0.00 41 1011.5
20260503200042 54 198 2.0 10.0 0.00 0.00 0.00 44 1011.7
20260503194539 54 213 5.0 14.0 0.00 0.00 0.00 40 1012.2
20260503193048 54 221 6.0 13.0 0.00 0.00 0.00 42 1012.3
20260503191539 54 273 4.0 12.0 0.00 0.00 0.00 42 1012.4
20260503190036 55 207 5.0 12.0 0.00 0.00 0.00 42 1012.6
20260503184544 53 271 6.0 16.0 0.00 0.00 0.00 43 1012.8
20260503183053 53 225 6.0 14.0 0.00 0.00 0.00 44 1013.0
20260503181539 53 212 7.0 14.0 0.00 0.00 0.00 42 1013.0
20260503180038 53 202 8.0 15.0 0.00 0.00 0.00 42 1013.1
20260503174537 52 242 7.0 15.0 0.00 0.00 0.00 45 1013.1
20260503173037 53 223 7.0 16.0 0.00 0.00 0.00 41 1013.1
20260503171539 52 230 6.0 16.0 0.00 0.00 0.00 48 1013.4
20260503081545 29 0 0.0 2.0 0.00 0.01 0.00 89 1013.5
20260503071535 30 0 0.0 2.0 0.00 0.01 0.00 86 1013.6
20260503054543 30 0 0.0 0.0 0.00 0.01 0.00 87 1013.9
20260503053034 30 0 0.0 0.0 0.00 0.01 0.00 87 1014.0
20260503051537 30 0 0.0 0.0 0.00 0.01 0.00 85 1014.0
20260503050039 31 0 0.0 0.0 0.00 0.01 0.00 83 1014.1
20260503044533 32 0 0.0 0.0 0.00 0.01 0.00 80 1014.2
20260503043034 33 0 0.0 2.0 0.00 0.01 0.00 78 1014.2
20260503041535 34 0 0.0 1.0 0.00 0.01 0.00 77 1014.3
20260503040045 34 0 0.0 2.0 0.00 0.01 0.00 77 1014.3
20260503034539 34 0 0.0 2.0 0.00 0.01 0.01 76 1014.3
20260503033042 35 0 0.0 0.0 0.00 0.01 0.01 75 1014.4
20260503031546 35 0 0.0 2.0 0.00 0.01 0.01 75 1014.4
20260503030040 35 0 0.0 2.0 0.00 0.01 0.01 74 1014.5
20260503024542 35 0 0.0 2.0 0.00 0.01 0.01 73 1014.4
20260503023036 36 261 0.0 2.0 0.00 0.01 0.01 71 1014.6
20260503021535 36 261 1.0 3.0 0.00 0.01 0.01 70 1014.6
20260503020035 36 0 0.0 2.0 0.00 0.01 0.01 69 1014.5
20260503014541 37 302 1.0 3.0 0.00 0.01 0.01 68 1014.4
20260503013039 37 255 1.0 4.0 0.00 0.01 0.01 67 1014.5
20260503011541 37 0 0.0 3.0 0.00 0.01 0.01 68 1014.4
20260503010035 37 320 1.0 4.0 0.00 0.01 0.01 66 1014.3
20260503004536 38 279 0.0 2.0 0.00 0.02 0.01 67 1014.1
20260503003040 38 250 1.0 3.0 0.00 0.02 0.01 65 1014.0
20260503001540 38 282 2.0 6.0 0.00 0.02 0.01 63 1014.0
20260503000036 39 282 1.0 7.0 0.00 0.02 0.01 64 1013.9
20260502234536 39 0 1.0 3.0 0.00 0.02 0.01 66 1013.8
20260502233043 39 271 1.0 6.0 0.00 0.02 0.01 63 1013.8
20260502231553 39 318 4.0 8.0 0.00 0.02 0.01 60 1013.8
20260502230042 40 227 2.0 6.0 0.00 0.02 0.01 62 1013.7
20260502224538 40 287 2.0 8.0 0.00 0.03 0.01 61 1013.7
20260502223044 40 219 3.0 10.0 0.00 0.03 0.01 59 1013.6
20260502221536 40 250 2.0 9.0 0.00 0.03 0.01 60 1013.6
20260502220045 40 281 4.0 7.0 0.00 0.03 0.01 59 1013.6
20260502214540 40 303 4.0 9.0 0.00 0.08 0.01 59 1013.4
20260502213047 41 305 5.0 9.0 0.00 0.08 0.01 61 1013.3
20260502211543 41 261 2.0 7.0 0.00 0.08 0.01 64 1013.2
20260502210036 41 304 2.0 6.0 0.00 0.08 0.01 68 1013.0
20260502204546 41 306 3.0 13.0 0.00 0.12 0.01 66 1013.1